星链-11482 (STARLINK-11482)

导读

STARLINK-11482是美国SpaceX公司星链计划中的一颗卫星,于2025年1月8日发射入轨。星链计划旨在构建全球卫星互联网星座,为全球各地用户提供高速宽带服务。该卫星延续星链标准化设计,依托低轨部署优势,助力覆盖拓展与网络容量提升,支撑星链全球通信服务架构的持续完善。

基本信息
目录编号:
62520
目录名称:
STARLINK-11482
国际标识:
2025-004K
轨道中心:
EARTH
卫星名称:
星链-11482
卫星全名:
星链-11482 (STARLINK-11482)
卫星状态:
在轨 (已飞行605 天)
发射日期:
2025-01-08 UTC
国别 :
美国 (US)
星等 :
--
轨道信息
数据来源 国际轨道数据
星历时间: 2026-09-05T05:02:03+0800
10小时前
查看轨道信息
半长轴: 6734.627km
偏心率: 0.0001727
轨道倾角: 43.000°
近地点辐角 276.895°
升交点赤经 70.317°
平近点角 83.172°
近地点: 355.326km
远地点: 357.654km
周期: 91.671分钟
每日圈数: 15.708419
详细信息
固有亮度:
5
最大亮度:
2.5
卫星平台:
Starlink V1.0
覆盖范围:
全球
运营商:
太空探索技术公司
运营商所在国:
美国
制造商(研发单位):
太空探索技术公司
制造商所在国:
美国
使用方式:
暂无
卫星简介
Starlink 计划是 SpaceX 推出的全球卫星互联网项目,通过发射低轨道卫星,为全球尤其是偏远地区提供高速、低延迟的互联网服务。自 2019 年起,Starlink 已部署数千颗卫星,旨在缩小全球数字鸿沟,推动互联网普及。该项目还为军事、航空等行业提供通信支持,带来广泛经济效益。
2D轨道图
3D轨道图
轨道高度分析图
轨道倾角分析图
轨道综合分析图
查看轨道综合分析图